sat.trackr.live / text

‹ back to catalog

STARLINK-11574 [DTC]

NORAD 63010 · 2025-032F

PAYLOAD ACTIVE UNKNOWN

§ Identity

Operator
Country
US
Launch date
2025-02-15
Launch site
AFETR
Launch vehicle
Mass (kg)
RCS (m²)

Purposes: comms

External: N2YO · Heavens-Above · Gunter

§ Orbital elements

Epoch: 2026-05-24T23:59:55.311072Z

Period
91.67 min
Inclination
42.9999°
Eccentricity
0.0001958
Mean motion
15.70843892 rev/d
Perigee alt
355.2 km
Apogee alt
357.8 km
Semi-major
6,734.6 km
B*
1.1557e-3
RAAN
95.5257°
Arg perigee
273.5269°
Mean anomaly
86.5375°
Rev number
7,421

§ Raw data

STARLINK-11574 [DTC]1 63010U 25032F   26144.99994573  .00150583  00000+0  11557-2 0  99962 63010  42.9999  95.5257 0001958 273.5269  86.5375 15.70843892 74219

JSON: /api/v1/satellites/63010 · /tle

For live sub-satellite position, see the globe view (requires WebGL).

§ Visibility from observer

Set your observer location to see the next 7 days of passes ≥ 10°. The values pass through the URL so the page stays shareable.

No JS? Fill the form by hand. The geolocation button needs JavaScript.